Time,TemperatureF,DewpointF,PressureIn,WindDirection,WindDirectionDegrees,WindSpeedMPH,WindSpeedGustMPH,Humidity,HourlyPrecipIn,Conditions,Clouds,dailyrainin,SoftwareType,DateUTC
2013-09-13 00:01:00,72.7,69.9,29.80,WSW,252,8.1,8.3,91,0.00,,---,0.00,VWS V14.01,2013-09-13 04:01:00,
2013-09-13 00:02:00,72.5,69.7,29.80,WSW,252,8.7,8.7,91,0.00,,---,0.00,VWS V14.01,2013-09-13 04:02:00,
2013-09-13 00:08:00,72.7,69.9,29.80,West,263,2.7,5.8,91,0.00,,---,0.00,VWS V14.01,2013-09-13 04:08:00,
2013-09-13 00:09:00,72.7,69.9,29.80,West,263,2.7,4.9,91,0.00,,---,0.00,VWS V14.01,2013-09-13 04:09:00,
2013-09-13 00:10:00,72.7,69.9,29.80,WNW,284,4.0,4.0,91,0.00,,---,0.00,VWS V14.01,2013-09-13 04:10:00,
2013-09-13 00:13:00,72.7,70.2,29.80,West,273,3.1,5.4,92,0.00,,---,0.00,VWS V14.01,2013-09-13 04:13:00,
2013-09-13 00:18:00,72.7,70.2,29.77,WSW,258,4.0,4.9,92,0.00,,---,0.00,VWS V14.01,2013-09-13 04:18:00,
2013-09-13 00:23:00,72.7,70.2,29.77,SW,236,3.6,4.0,92,0.00,,---,0.00,VWS V14.01,2013-09-13 04:23:00,
2013-09-13 00:29:00,72.7,70.2,29.77,SW,234,5.8,5.8,92,0.00,,---,0.00,VWS V14.01,2013-09-13 04:29:00,
2013-09-13 00:34:00,72.7,70.2,29.77,WSW,246,0.0,3.6,92,0.00,,---,0.00,VWS V14.01,2013-09-13 04:34:00,
2013-09-13 00:39:00,72.7,70.5,29.77,WSW,249,3.6,5.4,93,0.00,,---,0.00,VWS V14.01,2013-09-13 04:39:00,
2013-09-13 00:44:00,72.7,70.5,29.77,West,267,2.7,4.0,93,0.00,,---,0.00,VWS V14.01,2013-09-13 04:44:00,
2013-09-13 00:49:00,72.7,70.5,29.74,West,274,3.6,4.0,93,0.00,,---,0.00,VWS V14.01,2013-09-13 04:49:00,
2013-09-13 00:55:00,72.7,70.5,29.74,NW,307,4.0,5.8,93,0.00,,---,0.00,VWS V14.01,2013-09-13 04:55:00,
2013-09-13 01:01:00,72.5,70.4,29.77,WSW,239,8.1,8.1,93,0.00,,---,0.00,VWS V14.01,2013-09-13 05:01:00,
2013-09-13 01:06:00,72.5,70.4,29.77,West,263,4.9,7.6,93,0.00,,---,0.00,VWS V14.01,2013-09-13 05:06:00,
2013-09-13 01:12:00,72.5,70.4,29.77,West,259,5.8,5.8,93,0.00,,---,0.00,VWS V14.01,2013-09-13 05:12:00,
2013-09-13 01:17:00,72.5,70.4,29.77,WNW,295,5.8,7.2,93,0.00,,---,0.00,VWS V14.01,2013-09-13 05:17:00,
2013-09-13 01:22:00,72.5,70.4,29.77,WNW,291,4.0,4.9,93,0.00,,---,0.00,VWS V14.01,2013-09-13 05:22:00,
2013-09-13 01:27:00,72.3,70.5,29.77,WSW,256,3.6,5.8,94,0.00,,---,0.00,VWS V14.01,2013-09-13 05:27:00,
2013-09-13 01:32:00,72.3,70.5,29.77,West,280,6.3,8.7,94,0.00,,---,0.00,VWS V14.01,2013-09-13 05:32:00,
2013-09-13 01:37:00,72.1,70.0,29.77,WNW,290,7.6,8.7,93,0.00,,---,0.00,VWS V14.01,2013-09-13 05:37:00,
2013-09-13 01:42:00,72.0,69.8,29.77,West,274,3.6,7.2,93,0.00,,---,0.00,VWS V14.01,2013-09-13 05:42:00,
2013-09-13 01:47:00,72.0,69.8,29.77,WNW,283,5.4,5.4,93,0.00,,---,0.00,VWS V14.01,2013-09-13 05:47:00,
2013-09-13 01:52:00,72.0,69.8,29.77,West,259,4.9,4.9,93,0.00,,---,0.00,VWS V14.01,2013-09-13 05:52:00,
2013-09-13 01:57:00,71.8,69.7,29.77,West,279,7.6,8.7,93,0.00,,---,0.00,VWS V14.01,2013-09-13 05:57:00,
2013-09-13 02:02:00,71.8,69.3,29.77,West,263,3.1,3.1,92,0.00,,---,0.00,VWS V14.01,2013-09-13 06:02:00,
2013-09-13 02:07:00,72.0,69.5,29.77,WSW,249,5.4,6.3,92,0.00,,---,0.00,VWS V14.01,2013-09-13 06:07:00,
2013-09-13 02:12:00,71.8,69.7,29.77,West,267,7.6,7.6,93,0.00,,---,0.00,VWS V14.01,2013-09-13 06:12:00,
2013-09-13 02:17:00,71.8,69.7,29.77,WNW,284,5.4,5.8,93,0.00,,---,0.00,VWS V14.01,2013-09-13 06:17:00,
2013-09-13 02:22:00,71.8,69.7,29.77,West,278,7.6,7.6,93,0.00,,---,0.00,VWS V14.01,2013-09-13 06:22:00,
2013-09-13 02:27:00,71.8,69.7,29.77,WNW,296,7.6,7.6,93,0.00,,---,0.00,VWS V14.01,2013-09-13 06:27:00,
2013-09-13 02:32:00,71.8,69.7,29.77,West,271,5.8,6.7,93,0.00,,---,0.00,VWS V14.01,2013-09-13 06:32:00,
2013-09-13 02:37:00,71.6,69.5,29.77,West,276,7.6,8.1,93,0.00,,---,0.00,VWS V14.01,2013-09-13 06:37:00,
2013-09-13 02:42:00,71.6,69.5,29.77,WNW,291,5.4,8.3,93,0.00,,---,0.00,VWS V14.01,2013-09-13 06:42:00,
2013-09-13 02:47:00,71.6,69.5,29.74,WNW,294,7.6,7.6,93,0.00,,---,0.00,VWS V14.01,2013-09-13 06:47:00,
2013-09-13 02:52:00,71.6,69.2,29.74,WNW,291,5.4,5.8,92,0.00,,---,0.00,VWS V14.01,2013-09-13 06:52:00,
2013-09-13 02:57:00,71.6,69.2,29.74,West,278,5.4,5.8,92,0.00,,---,0.00,VWS V14.01,2013-09-13 06:57:00,
2013-09-13 03:02:00,71.6,69.2,29.74,WSW,256,4.9,6.3,92,0.00,,---,0.00,VWS V14.01,2013-09-13 07:02:00,
2013-09-13 03:07:00,71.6,69.2,29.74,WNW,293,5.8,8.1,92,0.00,,---,0.00,VWS V14.01,2013-09-13 07:07:00,
2013-09-13 03:12:00,71.6,69.2,29.74,WNW,299,6.3,6.3,92,0.00,,---,0.00,VWS V14.01,2013-09-13 07:12:00,
2013-09-13 03:17:00,71.6,69.2,29.74,WNW,287,4.9,6.3,92,0.00,,---,0.00,VWS V14.01,2013-09-13 07:17:00,
2013-09-13 03:22:00,71.6,69.2,29.74,WNW,297,3.6,4.9,92,0.00,,---,0.00,VWS V14.01,2013-09-13 07:22:00,
2013-09-13 03:27:00,71.6,69.2,29.74,WNW,288,4.9,4.9,92,0.00,,---,0.00,VWS V14.01,2013-09-13 07:27:00,
2013-09-13 03:32:00,71.6,69.2,29.74,West,277,5.4,5.4,92,0.00,,---,0.00,VWS V14.01,2013-09-13 07:32:00,
2013-09-13 03:37:00,71.6,69.2,29.74,WNW,291,7.6,7.6,92,0.00,,---,0.00,VWS V14.01,2013-09-13 07:37:00,
2013-09-13 03:42:00,71.6,69.2,29.74,WSW,252,5.4,5.4,92,0.00,,---,0.00,VWS V14.01,2013-09-13 07:42:00,
2013-09-13 03:47:00,71.6,68.8,29.74,WSW,253,4.0,4.0,91,0.00,,---,0.00,VWS V14.01,2013-09-13 07:47:00,
2013-09-13 03:52:00,71.6,68.8,29.74,WNW,302,2.7,4.9,91,0.00,,---,0.00,VWS V14.01,2013-09-13 07:52:00,
2013-09-13 03:57:00,71.6,68.8,29.74,WNW,284,3.6,6.3,91,0.00,,---,0.00,VWS V14.01,2013-09-13 07:57:00,
2013-09-13 04:02:00,71.6,68.8,29.74,WNW,285,4.9,5.8,91,0.00,,---,0.00,VWS V14.01,2013-09-13 08:02:00,
2013-09-13 04:07:00,71.6,68.8,29.74,West,278,5.4,6.3,91,0.00,,---,0.00,VWS V14.01,2013-09-13 08:07:00,
2013-09-13 04:12:00,71.6,68.8,29.74,West,279,3.6,5.8,91,0.00,,---,0.00,VWS V14.01,2013-09-13 08:12:00,
2013-09-13 04:17:00,71.6,68.8,29.71,WSW,258,3.6,6.3,91,0.00,,---,0.00,VWS V14.01,2013-09-13 08:17:00,
2013-09-13 04:22:00,71.8,69.0,29.71,NW,307,5.4,5.8,91,0.00,,---,0.00,VWS V14.01,2013-09-13 08:22:00,
2013-09-13 04:27:00,71.8,69.0,29.71,West,273,5.4,5.4,91,0.00,,---,0.00,VWS V14.01,2013-09-13 08:27:00,
2013-09-13 04:32:00,71.8,69.0,29.74,WNW,300,0.0,3.6,91,0.00,,---,0.00,VWS V14.01,2013-09-13 08:32:00,
2013-09-13 04:37:00,72.0,69.2,29.74,West,265,2.2,3.1,91,0.00,,---,0.00,VWS V14.01,2013-09-13 08:37:00,
2013-09-13 04:42:00,72.0,69.5,29.74,WNW,288,4.0,4.0,92,0.00,,---,0.00,VWS V14.01,2013-09-13 08:42:00,
2013-09-13 04:47:00,72.0,69.5,29.74,NW,304,5.8,5.8,92,0.00,,---,0.00,VWS V14.01,2013-09-13 08:47:00,
2013-09-13 04:52:00,72.1,69.7,29.74,NW,311,5.4,5.4,92,0.00,,---,0.00,VWS V14.01,2013-09-13 08:52:00,
2013-09-13 04:57:00,72.1,69.7,29.74,NW,305,4.9,4.9,92,0.00,,---,0.00,VWS V14.01,2013-09-13 08:57:00,
2013-09-13 05:02:00,72.1,69.7,29.74,WNW,301,0.0,5.8,92,0.00,,---,0.00,VWS V14.01,2013-09-13 09:02:00,
2013-09-13 05:07:00,72.3,69.9,29.74,NW,314,6.3,7.6,92,0.00,,---,0.00,VWS V14.01,2013-09-13 09:07:00,
2013-09-13 05:12:00,72.1,69.7,29.74,NNW,338,5.8,7.6,92,0.00,,---,0.00,VWS V14.01,2013-09-13 09:12:00,
2013-09-13 05:17:00,72.3,69.9,29.74,NW,316,5.8,6.3,92,0.00,,---,0.00,VWS V14.01,2013-09-13 09:17:00,
2013-09-13 05:22:00,72.3,69.9,29.74,NW,326,3.6,6.3,92,0.00,,---,0.00,VWS V14.01,2013-09-13 09:22:00,
2013-09-13 05:27:00,72.3,69.9,29.74,NNW,343,5.8,6.3,92,0.00,,---,0.00,VWS V14.01,2013-09-13 09:27:00,
2013-09-13 05:32:00,72.3,69.9,29.74,NNW,343,3.6,3.6,92,0.00,,---,0.00,VWS V14.01,2013-09-13 09:32:00,
2013-09-13 05:37:00,72.1,69.7,29.74,NW,315,4.9,4.9,92,0.00,,---,0.00,VWS V14.01,2013-09-13 09:37:00,
2013-09-13 05:42:00,72.1,69.7,29.74,NW,313,7.6,8.3,92,0.00,,---,0.00,VWS V14.01,2013-09-13 09:42:00,
2013-09-13 05:47:00,72.1,69.7,29.74,NW,326,3.1,4.0,92,0.00,,---,0.00,VWS V14.01,2013-09-13 09:47:00,
2013-09-13 05:52:00,72.0,69.5,29.74,NW,315,5.8,7.6,92,0.00,,---,0.00,VWS V14.01,2013-09-13 09:52:00,
2013-09-13 05:57:00,72.0,69.2,29.74,NW,313,5.4,5.8,91,0.00,,---,0.00,VWS V14.01,2013-09-13 09:57:00,
2013-09-13 06:03:00,72.0,69.2,29.74,WNW,301,3.6,6.7,91,0.00,,---,0.00,VWS V14.01,2013-09-13 10:03:00,
2013-09-13 06:08:00,72.0,69.2,29.74,NW,318,7.2,7.2,91,0.00,,---,0.00,VWS V14.01,2013-09-13 10:08:00,
2013-09-13 06:13:00,71.8,69.0,29.74,NNW,335,4.0,6.3,91,0.00,,---,0.00,VWS V14.01,2013-09-13 10:13:00,
2013-09-13 06:18:00,71.8,69.0,29.74,North,353,4.0,10.1,91,0.00,,---,0.00,VWS V14.01,2013-09-13 10:18:00,
2013-09-13 06:23:00,71.8,69.0,29.74,NNW,328,4.0,6.3,91,0.00,,---,0.00,VWS V14.01,2013-09-13 10:23:00,
2013-09-13 06:28:00,71.6,68.8,29.74,NW,314,3.6,8.1,91,0.00,,---,0.00,VWS V14.01,2013-09-13 10:28:00,
2013-09-13 06:33:00,71.6,68.8,29.74,NW,318,10.5,10.5,91,0.00,,---,0.00,VWS V14.01,2013-09-13 10:33:00,
2013-09-13 06:38:00,71.6,68.8,29.74,NW,319,5.4,7.6,91,0.00,,---,0.00,VWS V14.01,2013-09-13 10:38:00,
2013-09-13 06:43:00,71.6,68.8,29.74,North,353,5.8,8.1,91,0.00,,---,0.00,VWS V14.01,2013-09-13 10:43:00,
2013-09-13 06:48:00,71.6,68.8,29.74,NW,318,3.1,4.9,91,0.00,,---,0.00,VWS V14.01,2013-09-13 10:48:00,
2013-09-13 06:53:00,71.6,68.8,29.74,NNW,334,2.2,5.4,91,0.00,,---,0.00,VWS V14.01,2013-09-13 10:53:00,
2013-09-13 06:58:00,71.6,68.8,29.74,North,353,2.7,6.3,91,0.00,,---,0.00,VWS V14.01,2013-09-13 10:58:00,
2013-09-13 07:03:00,71.6,68.8,29.74,NNW,333,4.0,4.9,91,0.00,,---,0.00,VWS V14.01,2013-09-13 11:03:00,
2013-09-13 07:08:00,71.6,68.8,29.74,NNW,340,5.4,5.4,91,0.00,,---,0.00,VWS V14.01,2013-09-13 11:08:00,
2013-09-13 07:13:00,71.6,68.8,29.74,NNW,342,3.1,5.8,91,0.00,,---,0.00,VWS V14.01,2013-09-13 11:13:00,
2013-09-13 07:18:00,71.6,68.8,29.74,NNW,333,5.4,5.4,91,0.00,,---,0.00,VWS V14.01,2013-09-13 11:18:00,
2013-09-13 07:23:00,71.6,68.8,29.74,NNW,330,3.1,5.4,91,0.00,,---,0.00,VWS V14.01,2013-09-13 11:23:00,
2013-09-13 07:28:00,71.6,68.8,29.74,NW,323,5.4,6.3,91,0.00,,---,0.00,VWS V14.01,2013-09-13 11:28:00,
2013-09-13 07:33:00,71.6,68.8,29.77,NNW,333,2.7,5.4,91,0.00,,---,0.00,VWS V14.01,2013-09-13 11:33:00,
2013-09-13 07:38:00,71.6,68.8,29.77,North,6,3.6,4.0,91,0.00,,---,0.00,VWS V14.01,2013-09-13 11:38:00,
2013-09-13 07:43:00,71.6,68.8,29.77,NNW,329,7.6,7.6,91,0.00,,---,0.00,VWS V14.01,2013-09-13 11:43:00,
2013-09-13 07:48:00,71.6,68.5,29.77,North,0,5.8,5.8,90,0.00,,---,0.00,VWS V14.01,2013-09-13 11:48:00,
2013-09-13 07:53:00,71.6,68.5,29.77,North,0,5.8,5.8,90,0.00,,---,0.00,VWS V14.01,2013-09-13 11:53:00,
2013-09-13 07:58:00,71.8,68.4,29.77,NNW,333,4.5,5.8,89,0.00,,---,0.00,VWS V14.01,2013-09-13 11:58:00,
2013-09-13 08:03:00,72.1,68.7,29.77,North,353,8.3,8.3,89,0.00,,---,0.00,VWS V14.01,2013-09-13 12:03:00,
2013-09-13 08:08:00,72.5,68.8,29.77,NNW,340,6.3,6.3,88,0.00,,---,0.00,VWS V14.01,2013-09-13 12:08:00,
2013-09-13 08:13:00,72.7,68.9,29.77,NNW,330,0.0,0.0,88,0.00,,---,0.00,VWS V14.01,2013-09-13 12:13:00,
2013-09-13 08:18:00,72.5,68.4,29.77,NNW,329,2.7,5.8,87,0.00,,---,0.00,VWS V14.01,2013-09-13 12:18:00,
2013-09-13 08:23:00,73.0,68.6,29.77,North,353,2.2,2.2,86,0.00,,---,0.00,VWS V14.01,2013-09-13 12:23:00,
2013-09-13 08:28:00,73.2,68.8,29.77,NW,309,0.0,0.0,86,0.00,,---,0.00,VWS V14.01,2013-09-13 12:28:00,
2013-09-13 08:33:00,73.6,68.8,29.77,NW,321,2.7,3.6,85,0.00,,---,0.00,VWS V14.01,2013-09-13 12:33:00,
2013-09-13 08:38:00,73.6,68.1,29.77,West,262,0.0,4.0,83,0.00,,---,0.00,VWS V14.01,2013-09-13 12:38:00,
2013-09-13 08:43:00,73.8,67.6,29.77,NNW,345,0.0,3.1,81,0.00,,---,0.00,VWS V14.01,2013-09-13 12:43:00,
2013-09-13 08:48:00,74.3,67.7,29.77,NW,323,5.4,5.4,80,0.00,,---,0.00,VWS V14.01,2013-09-13 12:48:00,
2013-09-13 08:53:00,74.7,67.7,29.77,NNW,346,6.3,6.3,79,0.00,,---,0.00,VWS V14.01,2013-09-13 12:53:00,
2013-09-13 08:58:00,75.0,67.3,29.77,North,0,0.0,2.2,77,0.00,,---,0.00,VWS V14.01,2013-09-13 12:58:00,
2013-09-13 09:03:00,75.2,67.1,29.77,NNW,343,4.0,4.0,76,0.00,,---,0.00,VWS V14.01,2013-09-13 13:03:00,
2013-09-13 09:08:00,75.9,67.8,29.77,North,3,0.0,0.0,76,0.00,,---,0.00,VWS V14.01,2013-09-13 13:08:00,
2013-09-13 09:13:00,76.6,68.1,29.77,NNE,28,0.0,3.6,75,0.00,,---,0.00,VWS V14.01,2013-09-13 13:13:00,
2013-09-13 09:18:00,76.6,67.3,29.77,ENE,59,3.1,3.1,73,0.00,,---,0.00,VWS V14.01,2013-09-13 13:18:00,
2013-09-13 09:23:00,77.0,66.9,29.77,North,11,8.7,8.7,71,0.00,,---,0.00,VWS V14.01,2013-09-13 13:23:00,
2013-09-13 09:28:00,77.0,66.5,29.77,NNE,15,5.4,10.1,70,0.00,,---,0.00,VWS V14.01,2013-09-13 13:28:00,
2013-09-13 09:33:00,76.8,66.3,29.77,NNW,335,4.0,5.8,70,0.00,,---,0.00,VWS V14.01,2013-09-13 13:33:00,
2013-09-13 09:38:00,77.2,66.2,29.77,North,0,6.3,7.6,69,0.00,,---,0.00,VWS V14.01,2013-09-13 13:38:00,
2013-09-13 09:43:00,76.5,65.5,29.77,North,2,4.0,4.0,69,0.00,,---,0.00,VWS V14.01,2013-09-13 13:43:00,
2013-09-13 09:48:00,76.6,65.7,29.77,North,357,4.0,5.8,69,0.00,,---,0.00,VWS V14.01,2013-09-13 13:48:00,
2013-09-13 09:53:00,77.2,66.2,29.77,North,353,3.6,3.6,69,0.00,,---,0.00,VWS V14.01,2013-09-13 13:53:00,
2013-09-13 09:58:00,76.8,65.9,29.77,North,0,8.3,8.7,69,0.00,,---,0.00,VWS V14.01,2013-09-13 13:58:00,
2013-09-13 10:03:00,77.0,66.1,29.77,North,6,4.0,5.8,69,0.00,,---,0.00,VWS V14.01,2013-09-13 14:03:00,
2013-09-13 10:08:00,76.8,65.9,29.77,North,0,6.3,7.6,69,0.00,,---,0.00,VWS V14.01,2013-09-13 14:08:00,
2013-09-13 10:13:00,77.0,65.6,29.77,NNW,335,4.9,6.3,68,0.00,,---,0.00,VWS V14.01,2013-09-13 14:13:00,
2013-09-13 10:18:00,77.9,66.5,29.77,North,0,0.0,5.4,68,0.00,,---,0.00,VWS V14.01,2013-09-13 14:18:00,
2013-09-13 10:23:00,78.1,66.2,29.77,North,350,4.0,6.3,67,0.00,,---,0.00,VWS V14.01,2013-09-13 14:23:00,
2013-09-13 10:28:00,78.4,66.2,29.77,North,353,0.0,0.0,66,0.00,,---,0.00,VWS V14.01,2013-09-13 14:28:00,
2013-09-13 10:33:00,78.1,65.8,29.77,North,353,3.1,4.5,66,0.00,,---,0.00,VWS V14.01,2013-09-13 14:33:00,
2013-09-13 10:38:00,78.6,65.9,29.77,NNW,336,2.2,3.6,65,0.00,,---,0.00,VWS V14.01,2013-09-13 14:38:00,
2013-09-13 10:43:00,77.7,64.6,29.77,NW,324,6.7,8.3,64,0.00,,---,0.00,VWS V14.01,2013-09-13 14:43:00,
2013-09-13 10:48:00,77.5,64.9,29.77,North,349,5.4,5.8,65,0.00,,---,0.00,VWS V14.01,2013-09-13 14:48:00,
2013-09-13 10:53:00,77.4,64.7,29.77,NW,311,5.4,5.4,65,0.00,,---,0.00,VWS V14.01,2013-09-13 14:53:00,
2013-09-13 10:58:00,78.4,65.7,29.77,North,353,3.1,3.1,65,0.00,,---,0.00,VWS V14.01,2013-09-13 14:58:00,
2013-09-13 11:03:00,79.3,65.2,29.77,NNW,341,5.8,6.3,62,0.00,,---,0.00,VWS V14.01,2013-09-13 15:03:00,
2013-09-13 11:08:00,79.7,64.6,29.77,NNE,33,6.7,6.7,60,0.00,,---,0.00,VWS V14.01,2013-09-13 15:08:00,
2013-09-13 11:13:00,79.0,62.5,29.77,North,0,3.1,7.6,57,0.00,,---,0.00,VWS V14.01,2013-09-13 15:13:00,
2013-09-13 11:18:00,79.0,63.0,29.80,WNW,291,3.6,4.0,58,0.00,,---,0.00,VWS V14.01,2013-09-13 15:18:00,
2013-09-13 11:23:00,79.0,62.0,29.80,North,4,7.2,7.2,56,0.00,,---,0.00,VWS V14.01,2013-09-13 15:23:00,
2013-09-13 11:28:00,78.4,61.0,29.80,North,350,8.7,8.7,55,0.00,,---,0.00,VWS V14.01,2013-09-13 15:28:00,
2013-09-13 11:33:00,79.5,62.0,29.80,North,2,4.0,7.2,55,0.00,,---,0.00,VWS V14.01,2013-09-13 15:33:00,
2013-09-13 11:38:00,79.0,60.4,29.80,NNW,343,9.6,9.6,53,0.00,,---,0.00,VWS V14.01,2013-09-13 15:38:00,
2013-09-13 11:43:00,79.9,61.2,29.80,NNE,32,8.7,8.7,53,0.00,,---,0.00,VWS V14.01,2013-09-13 15:43:00,
2013-09-13 11:48:00,80.4,61.2,29.80,North,7,4.9,5.4,52,0.00,,---,0.00,VWS V14.01,2013-09-13 15:48:00,
2013-09-13 11:53:00,81.9,62.0,29.80,NE,43,2.7,5.8,51,0.00,,---,0.00,VWS V14.01,2013-09-13 15:53:00,
2013-09-13 11:58:00,82.4,61.3,29.80,NE,41,5.4,5.4,49,0.00,,---,0.00,VWS V14.01,2013-09-13 15:58:00,
2013-09-13 12:03:00,82.4,60.8,29.80,North,353,8.3,8.3,48,0.00,,---,0.00,VWS V14.01,2013-09-13 16:03:00,
2013-09-13 12:08:00,81.9,60.3,29.80,NNE,20,4.5,6.3,48,0.00,,---,0.00,VWS V14.01,2013-09-13 16:08:00,
2013-09-13 12:13:00,81.5,58.1,29.80,NW,321,8.1,10.1,45,0.00,,---,0.00,VWS V14.01,2013-09-13 16:13:00,
2013-09-13 12:18:00,80.4,57.8,29.77,NW,315,7.6,9.6,46,0.00,,---,0.00,VWS V14.01,2013-09-13 16:18:00,
2013-09-13 12:23:00,82.2,58.8,29.77,North,6,5.4,6.7,45,0.00,,---,0.00,VWS V14.01,2013-09-13 16:23:00,
2013-09-13 12:28:00,81.7,58.3,29.77,North,5,3.6,4.0,45,0.00,,---,0.00,VWS V14.01,2013-09-13 16:28:00,
2013-09-13 12:33:00,82.2,58.2,29.77,North,353,6.3,10.1,44,0.00,,---,0.00,VWS V14.01,2013-09-13 16:33:00,
2013-09-13 12:38:00,83.1,58.3,29.77,NW,325,8.7,8.7,43,0.00,,---,0.00,VWS V14.01,2013-09-13 16:38:00,
2013-09-13 12:43:00,82.4,57.0,29.77,NNW,329,5.8,9.6,42,0.00,,---,0.00,VWS V14.01,2013-09-13 16:43:00,
2013-09-13 12:48:00,83.5,58.0,29.80,NNW,335,5.8,5.8,42,0.00,,---,0.00,VWS V14.01,2013-09-13 16:48:00,
2013-09-13 12:53:00,83.5,55.9,29.80,NNW,341,8.1,8.1,39,0.00,,---,0.00,VWS V14.01,2013-09-13 16:53:00,
2013-09-13 12:58:00,80.8,54.2,29.80,WNW,302,7.2,10.5,40,0.00,,---,0.00,VWS V14.01,2013-09-13 16:58:00,
2013-09-13 13:03:00,83.8,57.7,29.80,ENE,65,8.3,8.3,41,0.00,,---,0.00,VWS V14.01,2013-09-13 17:03:00,
2013-09-13 13:08:00,84.4,57.5,29.80,North,353,3.6,3.6,40,0.00,,---,0.00,VWS V14.01,2013-09-13 17:08:00,
2013-09-13 13:13:00,83.5,56.6,29.80,North,357,7.6,10.1,40,0.00,,---,0.00,VWS V14.01,2013-09-13 17:13:00,
2013-09-13 13:18:00,84.6,56.9,29.77,NW,326,3.1,5.8,39,0.00,,---,0.00,VWS V14.01,2013-09-13 17:18:00,
2013-09-13 13:23:00,85.6,57.1,29.77,NW,322,6.3,6.3,38,0.00,,---,0.00,VWS V14.01,2013-09-13 17:23:00,
2013-09-13 13:28:00,86.2,56.1,29.77,NW,310,4.9,6.3,36,0.00,,---,0.00,VWS V14.01,2013-09-13 17:28:00,
2013-09-13 13:33:00,85.5,55.5,29.77,NNW,333,4.9,8.1,36,0.00,,---,0.00,VWS V14.01,2013-09-13 17:33:00,
2013-09-13 13:38:00,85.6,55.7,29.77,North,1,8.7,8.7,36,0.00,,---,0.00,VWS V14.01,2013-09-13 17:38:00,
2013-09-13 13:43:00,86.2,55.3,29.77,NNE,12,4.0,6.7,35,0.00,,---,0.00,VWS V14.01,2013-09-13 17:43:00,
2013-09-13 13:48:00,86.2,53.7,29.77,NNE,20,4.9,4.9,33,0.00,,---,0.00,VWS V14.01,2013-09-13 17:48:00,
2013-09-13 13:53:00,85.3,53.0,29.77,NNW,334,4.9,5.4,33,0.00,,---,0.00,VWS V14.01,2013-09-13 17:53:00,
2013-09-13 13:58:00,84.7,52.5,29.77,NNW,343,4.0,8.1,33,0.00,,---,0.00,VWS V14.01,2013-09-13 17:58:00,
2013-09-13 14:03:00,84.6,53.1,29.77,North,7,6.3,6.3,34,0.00,,---,0.00,VWS V14.01,2013-09-13 18:03:00,
2013-09-13 14:08:00,87.1,56.1,29.77,NW,314,4.0,5.4,35,0.00,,---,0.00,VWS V14.01,2013-09-13 18:08:00,
2013-09-13 14:13:00,88.2,54.6,29.77,NW,304,2.2,5.8,32,0.00,,---,0.00,VWS V14.01,2013-09-13 18:13:00,
2013-09-13 14:18:00,87.6,54.2,29.77,NE,47,7.6,8.7,32,0.00,,---,0.00,VWS V14.01,2013-09-13 18:18:00,
2013-09-13 14:23:00,85.8,54.2,29.77,NNE,32,7.2,7.2,34,0.00,,---,0.00,VWS V14.01,2013-09-13 18:23:00,
2013-09-13 14:28:00,84.0,53.5,29.77,NNW,348,3.6,5.4,35,0.00,,---,0.00,VWS V14.01,2013-09-13 18:28:00,
2013-09-13 14:34:00,84.2,53.6,29.80,North,353,7.6,10.1,35,0.00,,---,0.00,VWS V14.01,2013-09-13 18:34:00,
2013-09-13 14:39:00,84.0,53.5,29.80,North,0,6.7,6.7,35,0.00,,---,0.00,VWS V14.01,2013-09-13 18:39:00,
2013-09-13 14:44:00,85.8,54.2,29.80,North,357,2.7,8.3,34,0.00,,---,0.00,VWS V14.01,2013-09-13 18:44:00,
2013-09-13 14:49:00,87.1,54.5,29.80,NNE,16,8.7,8.7,33,0.00,,---,0.00,VWS V14.01,2013-09-13 18:49:00,
2013-09-13 14:54:00,87.6,54.2,29.80,North,3,7.2,8.7,32,0.00,,---,0.00,VWS V14.01,2013-09-13 18:54:00,
2013-09-13 14:59:00,86.2,52.9,29.80,North,357,5.8,6.3,32,0.00,,---,0.00,VWS V14.01,2013-09-13 18:59:00,
2013-09-13 15:04:00,86.4,53.0,29.80,NW,320,4.0,4.9,32,0.00,,---,0.00,VWS V14.01,2013-09-13 19:04:00,
2013-09-13 15:09:00,84.6,52.3,29.80,NNW,336,2.7,7.6,33,0.00,,---,0.00,VWS V14.01,2013-09-13 19:09:00,
2013-09-13 15:14:00,85.3,53.8,29.80,NW,305,3.1,4.9,34,0.00,,---,0.00,VWS V14.01,2013-09-13 19:14:00,
2013-09-13 15:19:00,87.6,55.8,29.77,North,2,3.1,8.1,34,0.00,,---,0.00,VWS V14.01,2013-09-13 19:19:00,
2013-09-13 15:24:00,87.1,54.5,29.77,NE,46,4.9,4.9,33,0.00,,---,0.00,VWS V14.01,2013-09-13 19:24:00,
2013-09-13 15:29:00,86.2,53.7,29.77,North,357,2.7,6.3,33,0.00,,---,0.00,VWS V14.01,2013-09-13 19:29:00,
2013-09-13 15:34:00,86.9,54.4,29.80,North,4,6.3,7.6,33,0.00,,---,0.00,VWS V14.01,2013-09-13 19:34:00,
2013-09-13 15:39:00,87.1,54.5,29.80,NE,48,4.0,4.0,33,0.00,,---,0.00,VWS V14.01,2013-09-13 19:39:00,
2013-09-13 15:44:00,89.4,54.8,29.80,North,4,3.1,5.4,31,0.00,,---,0.00,VWS V14.01,2013-09-13 19:44:00,
2013-09-13 15:49:00,89.8,54.2,29.77,NE,35,3.1,7.6,30,0.00,,---,0.00,VWS V14.01,2013-09-13 19:49:00,
2013-09-13 15:54:00,87.6,52.4,29.77,NNE,26,8.3,8.3,30,0.00,,---,0.00,VWS V14.01,2013-09-13 19:54:00,
2013-09-13 15:59:00,87.1,51.0,29.77,NW,326,13.2,13.2,29,0.00,,---,0.00,VWS V14.01,2013-09-13 19:59:00,
2013-09-13 16:04:00,86.7,51.6,29.80,NNE,15,4.0,9.6,30,0.00,,---,0.00,VWS V14.01,2013-09-13 20:04:00,
2013-09-13 16:09:00,85.8,51.7,29.80,North,349,5.4,5.4,31,0.00,,---,0.00,VWS V14.01,2013-09-13 20:09:00,
2013-09-13 16:14:00,84.0,51.0,29.80,NW,317,5.8,9.6,32,0.00,,---,0.00,VWS V14.01,2013-09-13 20:14:00,
2013-09-13 16:19:00,83.7,50.7,29.80,WNW,298,4.0,6.3,32,0.00,,---,0.00,VWS V14.01,2013-09-13 20:19:00,
2013-09-13 16:24:00,83.3,50.4,29.80,North,0,6.3,8.7,32,0.00,,---,0.00,VWS V14.01,2013-09-13 20:24:00,
2013-09-13 16:29:00,83.1,50.2,29.80,North,0,3.6,6.7,32,0.00,,---,0.00,VWS V14.01,2013-09-13 20:29:00,
2013-09-13 16:34:00,82.8,49.9,29.80,NW,308,6.3,7.6,32,0.00,,---,0.00,VWS V14.01,2013-09-13 20:34:00,
2013-09-13 16:39:00,85.3,50.4,29.80,NNW,343,3.6,8.3,30,0.00,,---,0.00,VWS V14.01,2013-09-13 20:39:00,
2013-09-13 16:44:00,83.5,49.7,29.80,NW,308,3.6,3.6,31,0.00,,---,0.00,VWS V14.01,2013-09-13 20:44:00,
2013-09-13 16:49:00,82.8,49.1,29.80,North,353,5.8,12.8,31,0.00,,---,0.00,VWS V14.01,2013-09-13 20:49:00,
2013-09-13 16:54:00,85.1,50.2,29.80,North,357,5.8,8.1,30,0.00,,---,0.00,VWS V14.01,2013-09-13 20:54:00,
2013-09-13 16:59:00,84.6,49.8,29.80,North,353,7.2,7.2,30,0.00,,---,0.00,VWS V14.01,2013-09-13 20:59:00,
2013-09-13 17:04:00,84.7,49.0,29.80,NNE,14,10.5,10.5,29,0.00,,---,0.00,VWS V14.01,2013-09-13 21:04:00,
2013-09-13 17:09:00,85.8,50.8,29.80,NW,326,8.3,8.3,30,0.00,,---,0.00,VWS V14.01,2013-09-13 21:09:00,
2013-09-13 17:14:00,86.0,50.1,29.80,NW,320,8.1,8.1,29,0.00,,---,0.00,VWS V14.01,2013-09-13 21:14:00,
2013-09-13 17:19:00,85.8,50.8,29.80,North,11,5.4,8.3,30,0.00,,---,0.00,VWS V14.01,2013-09-13 21:19:00,
2013-09-13 17:24:00,86.0,50.1,29.80,NNW,341,4.0,4.0,29,0.00,,---,0.00,VWS V14.01,2013-09-13 21:24:00,
2013-09-13 17:29:00,86.4,50.4,29.80,North,353,0.0,2.2,29,0.00,,---,0.00,VWS V14.01,2013-09-13 21:29:00,
2013-09-13 17:34:00,86.7,50.7,29.80,NNW,346,5.8,6.3,29,0.00,,---,0.00,VWS V14.01,2013-09-13 21:34:00,
2013-09-13 17:39:00,86.2,50.2,29.80,North,10,4.9,8.1,29,0.00,,---,0.00,VWS V14.01,2013-09-13 21:39:00,
2013-09-13 17:44:00,86.0,50.1,29.80,NNW,332,7.6,7.6,29,0.00,,---,0.00,VWS V14.01,2013-09-13 21:44:00,
2013-09-13 17:49:00,85.1,49.3,29.80,NNW,337,6.3,8.1,29,0.00,,---,0.00,VWS V14.01,2013-09-13 21:49:00,
2013-09-13 17:54:00,84.7,49.0,29.80,NW,321,6.3,6.3,29,0.00,,---,0.00,VWS V14.01,2013-09-13 21:54:00,
2013-09-13 17:59:00,82.6,48.0,29.80,NNW,332,4.9,4.9,30,0.00,,---,0.00,VWS V14.01,2013-09-13 21:59:00,
2013-09-13 18:04:00,82.6,48.9,29.80,North,353,11.0,11.0,31,0.00,,---,0.00,VWS V14.01,2013-09-13 22:04:00,
2013-09-13 18:09:00,85.5,50.5,29.80,NNW,336,6.3,8.3,30,0.00,,---,0.00,VWS V14.01,2013-09-13 22:09:00,
2013-09-13 18:14:00,87.4,51.3,29.80,North,7,5.4,5.4,29,0.00,,---,0.00,VWS V14.01,2013-09-13 22:14:00,
2013-09-13 18:19:00,88.2,51.9,29.80,NW,316,2.7,5.8,29,0.00,,---,0.00,VWS V14.01,2013-09-13 22:19:00,
2013-09-13 18:24:00,88.0,51.8,29.80,NW,319,0.0,5.8,29,0.00,,---,0.00,VWS V14.01,2013-09-13 22:24:00,
2013-09-13 18:29:00,87.6,51.5,29.80,NW,321,8.7,8.7,29,0.00,,---,0.00,VWS V14.01,2013-09-13 22:29:00,
2013-09-13 18:34:00,87.1,51.0,29.80,North,7,4.0,4.0,29,0.00,,---,0.00,VWS V14.01,2013-09-13 22:34:00,
2013-09-13 18:39:00,86.5,51.5,29.80,NW,315,4.0,4.0,30,0.00,,---,0.00,VWS V14.01,2013-09-13 22:39:00,
2013-09-13 18:44:00,85.3,51.2,29.80,NW,314,5.8,8.7,31,0.00,,---,0.00,VWS V14.01,2013-09-13 22:44:00,
2013-09-13 18:49:00,82.6,48.9,29.83,North,0,4.9,5.8,31,0.00,,---,0.00,VWS V14.01,2013-09-13 22:49:00,
2013-09-13 18:54:00,81.5,49.7,29.83,NNW,345,5.4,5.4,33,0.00,,---,0.00,VWS V14.01,2013-09-13 22:54:00,
2013-09-13 18:59:00,78.8,48.1,29.83,North,3,0.0,2.7,34,0.00,,---,0.00,VWS V14.01,2013-09-13 22:59:00,
2013-09-13 19:04:00,77.5,49.2,29.83,NW,311,4.0,4.0,37,0.00,,---,0.00,VWS V14.01,2013-09-13 23:04:00,
2013-09-13 19:09:00,76.6,49.8,29.83,NNW,340,7.2,7.2,39,0.00,,---,0.00,VWS V14.01,2013-09-13 23:09:00,
2013-09-13 19:14:00,75.7,50.4,29.83,North,7,0.0,2.7,41,0.00,,---,0.00,VWS V14.01,2013-09-13 23:14:00,
2013-09-13 19:19:00,75.4,50.1,29.83,North,0,4.0,4.0,41,0.00,,---,0.00,VWS V14.01,2013-09-13 23:19:00,
2013-09-13 19:24:00,75.0,50.4,29.83,North,353,3.6,4.0,42,0.00,,---,0.00,VWS V14.01,2013-09-13 23:24:00,
2013-09-13 19:29:00,74.7,50.7,29.83,NNW,340,3.6,3.6,43,0.00,,---,0.00,VWS V14.01,2013-09-13 23:29:00,
2013-09-13 19:34:00,74.7,50.7,29.83,NNW,344,2.7,2.7,43,0.00,,---,0.00,VWS V14.01,2013-09-13 23:34:00,
2013-09-13 19:39:00,74.1,50.2,29.83,North,357,3.1,3.1,43,0.00,,---,0.00,VWS V14.01,2013-09-13 23:39:00,
2013-09-13 19:44:00,73.8,50.5,29.83,NNW,333,0.0,0.0,44,0.00,,---,0.00,VWS V14.01,2013-09-13 23:44:00,
2013-09-13 19:49:00,73.4,50.2,29.85,NNW,336,2.7,2.7,44,0.00,,---,0.00,VWS V14.01,2013-09-13 23:49:00,
2013-09-13 19:54:00,73.4,50.2,29.85,NNE,19,3.1,3.6,44,0.00,,---,0.00,VWS V14.01,2013-09-13 23:54:00,
2013-09-13 19:59:00,73.0,50.5,29.85,NNW,343,0.0,2.2,45,0.00,,---,0.00,VWS V14.01,2013-09-13 23:59:00,
2013-09-13 20:04:00,72.7,50.7,29.85,North,9,3.6,3.6,46,0.00,,---,0.00,VWS V14.01,2013-09-14 00:04:00,
2013-09-13 20:09:00,72.5,50.6,29.85,North,11,3.6,4.0,46,0.00,,---,0.00,VWS V14.01,2013-09-14 00:09:00,
2013-09-13 20:14:00,72.3,51.0,29.85,NNE,28,4.0,4.0,47,0.00,,---,0.00,VWS V14.01,2013-09-14 00:14:00,
2013-09-13 20:19:00,72.1,50.8,29.85,North,357,4.0,4.0,47,0.00,,---,0.00,VWS V14.01,2013-09-14 00:19:00,
2013-09-13 20:24:00,72.1,50.8,29.85,North,353,0.0,0.0,47,0.00,,---,0.00,VWS V14.01,2013-09-14 00:24:00,
2013-09-13 20:29:00,71.8,51.1,29.85,North,353,0.0,0.0,48,0.00,,---,0.00,VWS V14.01,2013-09-14 00:29:00,
2013-09-13 20:34:00,71.6,50.9,29.88,North,0,0.0,0.0,48,0.00,,---,0.00,VWS V14.01,2013-09-14 00:34:00,
2013-09-13 20:39:00,71.4,51.3,29.88,NNW,343,0.0,0.0,49,0.00,,---,0.00,VWS V14.01,2013-09-14 00:39:00,
2013-09-13 20:44:00,71.4,51.3,29.88,NNE,16,0.0,3.1,49,0.00,,---,0.00,VWS V14.01,2013-09-14 00:44:00,
2013-09-13 20:49:00,71.2,51.1,29.88,North,10,0.0,0.0,49,0.00,,---,0.00,VWS V14.01,2013-09-14 00:49:00,
2013-09-13 20:54:00,71.2,51.1,29.88,North,10,0.0,0.0,49,0.00,,---,0.00,VWS V14.01,2013-09-14 00:54:00,
2013-09-13 20:59:00,71.1,51.5,29.88,NNW,338,0.0,0.0,50,0.00,,---,0.00,VWS V14.01,2013-09-14 00:59:00,
2013-09-13 21:04:00,70.7,51.2,29.88,NNW,338,2.7,4.9,50,0.00,,---,0.00,VWS V14.01,2013-09-14 01:04:00,
2013-09-13 21:09:00,70.3,50.8,29.88,North,357,0.0,3.1,50,0.00,,---,0.00,VWS V14.01,2013-09-14 01:09:00,
2013-09-13 21:14:00,70.2,51.2,29.88,NNE,19,5.4,5.4,51,0.00,,---,0.00,VWS V14.01,2013-09-14 01:14:00,
2013-09-13 21:19:00,70.0,51.0,29.88,North,9,4.9,5.4,51,0.00,,---,0.00,VWS V14.01,2013-09-14 01:19:00,
2013-09-13 21:24:00,69.8,50.3,29.88,NNW,343,4.9,5.8,50,0.00,,---,0.00,VWS V14.01,2013-09-14 01:24:00,
2013-09-13 21:29:00,69.6,50.7,29.88,North,357,4.9,5.4,51,0.00,,---,0.00,VWS V14.01,2013-09-14 01:29:00,
2013-09-13 21:34:00,69.4,50.0,29.88,North,8,5.4,8.7,50,0.00,,---,0.00,VWS V14.01,2013-09-14 01:34:00,
2013-09-13 21:39:00,69.4,50.0,29.88,NNE,29,4.5,6.3,50,0.00,,---,0.00,VWS V14.01,2013-09-14 01:39:00,
2013-09-13 21:44:00,69.4,50.0,29.88,NNE,17,5.8,6.3,50,0.00,,---,0.00,VWS V14.01,2013-09-14 01:44:00,
2013-09-13 21:49:00,69.3,49.8,29.88,NNE,19,4.0,6.3,50,0.00,,---,0.00,VWS V14.01,2013-09-14 01:49:00,
2013-09-13 21:54:00,69.1,49.7,29.88,NW,318,2.7,4.0,50,0.00,,---,0.00,VWS V14.01,2013-09-14 01:54:00,
2013-09-13 21:59:00,68.9,50.0,29.88,NNE,20,5.8,5.8,51,0.00,,---,0.00,VWS V14.01,2013-09-14 01:59:00,
2013-09-13 22:04:00,68.7,49.9,29.88,NNW,344,0.0,4.0,51,0.00,,---,0.00,VWS V14.01,2013-09-14 02:04:00,
2013-09-13 22:09:00,68.5,50.2,29.88,North,0,4.0,4.0,52,0.00,,---,0.00,VWS V14.01,2013-09-14 02:09:00,
2013-09-13 22:14:00,68.4,50.6,29.91,NNE,20,2.7,4.0,53,0.00,,---,0.00,VWS V14.01,2013-09-14 02:14:00,
2013-09-13 22:19:00,68.4,50.6,29.91,NNE,20,0.0,4.0,53,0.00,,---,0.00,VWS V14.01,2013-09-14 02:19:00,
2013-09-13 22:24:00,68.2,50.4,29.91,North,10,0.0,5.4,53,0.00,,---,0.00,VWS V14.01,2013-09-14 02:24:00,
2013-09-13 22:30:00,68.0,50.2,29.91,North,357,0.0,5.4,53,0.00,,---,0.00,VWS V14.01,2013-09-14 02:30:00,
2013-09-13 22:35:00,68.0,50.2,29.91,North,357,3.1,6.3,53,0.00,,---,0.00,VWS V14.01,2013-09-14 02:35:00,
2013-09-13 22:40:00,67.8,50.6,29.91,North,1,3.1,5.4,54,0.00,,---,0.00,VWS V14.01,2013-09-14 02:40:00,
2013-09-13 22:45:00,67.6,49.9,29.91,NE,34,0.0,3.6,53,0.00,,---,0.00,VWS V14.01,2013-09-14 02:45:00,
2013-09-13 22:50:00,67.6,49.4,29.91,North,357,8.7,8.7,52,0.00,,---,0.00,VWS V14.01,2013-09-14 02:50:00,
2013-09-13 22:55:00,67.5,48.7,29.91,NE,39,3.1,5.8,51,0.00,,---,0.00,VWS V14.01,2013-09-14 02:55:00,
2013-09-13 23:00:00,67.3,48.5,29.91,NNE,29,3.6,6.3,51,0.00,,---,0.00,VWS V14.01,2013-09-14 03:00:00,
2013-09-13 23:05:00,67.3,48.5,29.91,NNW,346,4.0,7.2,51,0.00,,---,0.00,VWS V14.01,2013-09-14 03:05:00,
2013-09-13 23:10:00,67.1,48.9,29.91,NNW,342,2.7,5.8,52,0.00,,---,0.00,VWS V14.01,2013-09-14 03:10:00,
2013-09-13 23:15:00,66.9,48.7,29.91,North,3,3.1,8.1,52,0.00,,---,0.00,VWS V14.01,2013-09-14 03:15:00,
2013-09-13 23:20:00,66.7,48.6,29.91,North,0,2.7,5.4,52,0.00,,---,0.00,VWS V14.01,2013-09-14 03:20:00,
2013-09-13 23:25:00,66.6,48.4,29.91,NNE,27,3.1,8.7,52,0.00,,---,0.00,VWS V14.01,2013-09-14 03:25:00,
2013-09-13 23:30:00,66.4,48.2,29.91,NNE,15,5.8,8.3,52,0.00,,---,0.00,VWS V14.01,2013-09-14 03:30:00,
2013-09-13 23:35:00,66.4,48.2,29.91,NNE,13,5.4,10.5,52,0.00,,---,0.00,VWS V14.01,2013-09-14 03:35:00,
2013-09-13 23:40:00,66.2,48.1,29.91,North,349,7.2,10.5,52,0.00,,---,0.00,VWS V14.01,2013-09-14 03:40:00,
2013-09-13 23:45:00,66.2,48.1,29.91,North,9,11.4,11.4,52,0.00,,---,0.00,VWS V14.01,2013-09-14 03:45:00,
2013-09-13 23:50:00,66.2,48.1,29.91,NE,40,4.0,8.3,52,0.00,,---,0.00,VWS V14.01,2013-09-14 03:50:00,
2013-09-13 23:55:00,66.0,48.4,29.91,NE,35,5.4,5.8,53,0.00,,---,0.00,VWS V14.01,2013-09-14 03:55:00,